BEIDOU-2 G7 (41586 NORAD) Tracking and Keplerian Element Data

This shows tracking and keplerian element data for the satellite.

Feedback or suggestion? Click here.




ElementValue
Catalog41586
NameBEIDOU-2 G7
Epoch Orbit189
Epoch Day34.70555462
Epoch Year2025
RAAN68.1197
Inclination1.9347
Eccentricity0.0008622
Argument of Perigee342.7506
Mean Anonmoly87.691
Mean Motion1.00265779
Decay Rate-3.5E-06
L11 41586U 16037A 25034.70555462 -.00000350 00000+0 00000+0 0 9996
L22 41586 1.9347 68.1197 0008622 342.7506 87.6910 1.00265779 1893



Live tracking and technical data element details for BEIDOU-2 G7 (NORAD 41586). BEIDOU-2 G7 can be tracked NOW for your location showing map with azimuth and elevation plus other details from your city location.







IsCatalogInMostPopularTable: catalog: 41586, numindb: 776
Update: records affected: 1



GetName: 41586 BEIDOU-2 G7

Hit Count: updated at: Sat, 17 May 2025 06:06:23 GMT